Language: 


Des rapports , des résumés tant et plus, au choix de chacun....


Données statistiques de la station
 
Quotidien Rapport Février 23, 2018 Unités:  Anglais    Métrique   les deux
« Précédent Jour
Suivant Jour »
Quotidien Hebdomadaire Mensuel Annuel Actuel
  Actuel: Haut: Bas: Moyen:
Température: -1.9 °F TemperatureC °F -1.9 °F -1 °F
Pt de rosée: -6.0 °F DewpointC °F -6.0 °F -5.5 °F
Humidité: 75 % Humidity % 69 % 73 %
Vitesse du vent: 0.0 mph WindSpeedKMH mph 0.0 mph 10.1 mph
Rafales: 10.5 mph WindSpeedGustKMH mph - -
Vent:Calm - - ENE
Pression: 1018.2 in PressurehPa in 1018.2 in -
Précipitation: 0.0 in      
Historical Graphs
 
 
Données statistiques pour Février 23, 2018
Heure Température Point de rosée Pression Vent Vitesse du vent Refales Humidité Pluie (taux horaire)
TemperatureC °F DewpointC °F PressurehPa in Calm     Humidity % HourlyPrecipMM in
00:01 0.5 °F -4.0 °F 1020.9 in ENE 10.5 mph 20.1 mph 69 % 0.0 in
00:06 0.5 °F -4.0 °F 1020.9 in ENE 11.6 mph 20.1 mph 69 % 0.0 in
00:11 0.5 °F -4.0 °F 1020.9 in ENE 13.0 mph 20.9 mph 69 % 0.0 in
00:16 0.4 °F -5.0 °F 1020.9 in ENE 11.9 mph 20.9 mph 69 % 0.0 in
00:21 0.3 °F -5.0 °F 1020.9 in NE 9.0 mph 13.0 mph 69 % 0.0 in
00:26 0.3 °F -4.0 °F 1020.9 in ENE 13.0 mph 13.7 mph 70 % 0.0 in
00:31 0.3 °F -4.0 °F 1020.9 in ENE 11.9 mph 13.7 mph 70 % 0.0 in
00:36 0.2 °F -5.0 °F 1020.9 in ENE 9.3 mph 16.6 mph 70 % 0.0 in
00:41 0.1 °F -5.0 °F 1020.9 in NNE 9.7 mph 16.6 mph 70 % 0.0 in
00:46 0.1 °F -4.0 °F 1020.9 in East 9.3 mph 15.8 mph 71 % 0.0 in
00:51 0.1 °F -4.0 °F 1020.9 in ENE 12.6 mph 15.8 mph 71 % 0.0 in
00:56 0.1 °F -4.0 °F 1020.9 in NE 9.0 mph 16.9 mph 71 % 0.0 in
01:01 0.1 °F -4.0 °F 1019.9 in ENE 8.7 mph 16.9 mph 71 % 0.0 in
01:06 0.0 °F -5.0 °F 1019.9 in NE 9.0 mph 14.0 mph 71 % 0.0 in
01:11 -0.1 °F -5.0 °F 1019.9 in ENE 10.1 mph 14.0 mph 71 % 0.0 in
01:16 -0.1 °F -5.0 °F 1019.9 in NE 8.7 mph 13.0 mph 71 % 0.0 in
01:21 -0.3 °F -5.0 °F 1019.9 in ENE 5.8 mph 12.2 mph 72 % 0.0 in
01:26 -0.3 °F -5.0 °F 1019.9 in ENE 12.2 mph 13.7 mph 72 % 0.0 in
01:31 -0.3 °F -5.0 °F 1019.9 in ENE 6.4 mph 13.7 mph 72 % 0.0 in
01:36 -0.4 °F -5.0 °F 1019.9 in NE 8.7 mph 13.0 mph 72 % 0.0 in
01:42 -0.5 °F -6.0 °F 1019.9 in NE 6.1 mph 12.2 mph 73 % 0.0 in
01:47 -0.5 °F -6.0 °F 1019.9 in NNE 10.5 mph 14.8 mph 73 % 0.0 in
01:52 -0.5 °F -6.0 °F 1019.9 in NE 9.7 mph 14.8 mph 73 % 0.0 in
01:57 -0.5 °F -6.0 °F 1019.9 in NE 11.9 mph 14.0 mph 73 % 0.0 in
02:02 -0.5 °F -6.0 °F 1019.9 in NNE 11.9 mph 14.3 mph 73 % 0.0 in
02:07 -0.5 °F -5.0 °F 1019.9 in NE 11.6 mph 14.3 mph 74 % 0.0 in
02:12 -0.5 °F -5.0 °F 1019.9 in NNE 9.7 mph 16.9 mph 74 % 0.0 in
02:17 -0.7 °F -6.0 °F 1019.9 in NNE 8.7 mph 16.9 mph 73 % 0.0 in
02:22 -0.8 °F -6.0 °F 1019.9 in NNE 9.0 mph 10.5 mph 73 % 0.0 in
02:27 -0.9 °F -6.0 °F 1019.9 in NE 11.9 mph 11.9 mph 74 % 0.0 in
02:32 -0.9 °F -6.0 °F 1019.9 in NE 10.5 mph 11.9 mph 74 % 0.0 in
02:37 -1.0 °F -5.0 °F 1019.9 in NE 7.9 mph 12.2 mph 75 % 0.0 in
02:42 -1.0 °F -5.0 °F 1019.9 in NE 11.9 mph 14.0 mph 75 % 0.0 in
02:47 -1.0 °F -5.0 °F 1019.9 in NNE 13.0 mph 18.0 mph 76 % 0.0 in
02:52 -0.9 °F -5.0 °F 1019.9 in NE 12.2 mph 18.0 mph 75 % 0.0 in
02:57 -1.0 °F -5.0 °F 1019.9 in NE 12.2 mph 15.1 mph 76 % 0.0 in
03:02 -1.0 °F -5.0 °F 1018.8 in NE 13.7 mph 15.1 mph 75 % 0.0 in
03:07 -1.1 °F -5.0 °F 1018.8 in NE 9.7 mph 13.7 mph 75 % 0.0 in
03:12 -1.2 °F -6.0 °F 1018.8 in NNE 10.8 mph 13.7 mph 75 % 0.0 in
03:17 -1.2 °F -6.0 °F 1018.8 in ENE 10.1 mph 13.7 mph 76 % 0.0 in
03:22 -1.2 °F -6.0 °F 1018.8 in North 9.7 mph 13.7 mph 76 % 0.0 in
03:27 -1.3 °F -6.0 °F 1018.8 in NNE 9.0 mph 14.0 mph 76 % 0.0 in
03:32 -1.3 °F -6.0 °F 1018.8 in NNE 12.6 mph 14.0 mph 76 % 0.0 in
03:37 -1.4 °F -6.0 °F 1018.8 in NNE 6.4 mph 14.0 mph 76 % 0.0 in
03:42 -1.4 °F -6.0 °F 1018.8 in NE 12.2 mph 13.7 mph 76 % 0.0 in
03:47 -1.4 °F -5.0 °F 1018.2 in NE 17.7 mph 17.7 mph 77 % 0.0 in
03:53 -1.3 °F -6.0 °F 1018.2 in ENE 11.9 mph 19.5 mph 76 % 0.0 in
03:58 -1.3 °F -6.0 °F 1018.2 in NE 12.2 mph 19.5 mph 76 % 0.0 in
04:03 -1.3 °F -6.0 °F 1018.8 in NNE 11.9 mph 15.4 mph 76 % 0.0 in
04:08 -1.2 °F -6.0 °F 1018.8 in NE 12.2 mph 15.4 mph 75 % 0.0 in
04:13 -1.2 °F -6.0 °F 1018.8 in ENE 13.0 mph 14.8 mph 75 % 0.0 in
04:18 -1.2 °F -6.0 °F 1018.8 in ENE 13.7 mph 15.8 mph 75 % 0.0 in
04:23 -1.2 °F -6.0 °F 1018.8 in NE 11.9 mph 15.8 mph 75 % 0.0 in
04:28 -1.3 °F -6.0 °F 1018.8 in East 9.3 mph 14.0 mph 75 % 0.0 in
04:33 -1.3 °F -6.0 °F 1018.8 in NE 11.6 mph 14.0 mph 75 % 0.0 in
04:38 -1.3 °F -6.0 °F 1018.8 in NE 10.5 mph 14.0 mph 75 % 0.0 in
04:43 -1.4 °F -6.0 °F 1018.8 in NNE 10.5 mph 14.0 mph 75 % 0.0 in
04:48 -1.4 °F -6.0 °F 1018.8 in ENE 7.6 mph 14.0 mph 75 % 0.0 in
04:53 -1.4 °F -6.0 °F 1018.8 in ENE 12.6 mph 14.0 mph 75 % 0.0 in
04:58 -1.4 °F -6.0 °F 1018.8 in NE 9.0 mph 13.0 mph 75 % 0.0 in
05:03 -1.4 °F -6.0 °F 1018.8 in ENE 11.6 mph 13.0 mph 75 % 0.0 in
05:08 -1.4 °F -6.0 °F 1018.8 in NE 13.7 mph 15.8 mph 75 % 0.0 in
05:13 -1.5 °F -6.0 °F 1018.8 in NE 12.6 mph 15.8 mph 75 % 0.0 in
05:18 -1.5 °F -6.0 °F 1018.2 in East 12.2 mph 13.0 mph 75 % 0.0 in
05:23 -1.5 °F -6.0 °F 1018.2 in ENE 7.9 mph 12.6 mph 75 % 0.0 in
05:28 -1.5 °F -6.0 °F 1018.2 in ENE 9.0 mph 13.7 mph 75 % 0.0 in
05:33 -1.6 °F -6.0 °F 1018.8 in ENE 13.7 mph 13.7 mph 75 % 0.0 in
05:38 -1.6 °F -6.0 °F 1018.8 in NE 8.7 mph 13.7 mph 75 % 0.0 in
05:43 -1.6 °F -6.0 °F 1018.8 in ENE 8.7 mph 13.7 mph 76 % 0.0 in
05:48 -1.7 °F -6.0 °F 1018.2 in ENE 9.0 mph 12.6 mph 76 % 0.0 in
05:53 -1.7 °F -6.0 °F 1018.2 in NE 9.7 mph 11.9 mph 76 % 0.0 in
05:58 -1.7 °F -6.0 °F 1018.2 in ENE 8.7 mph 12.2 mph 76 % 0.0 in
06:03 -1.7 °F -6.0 °F 1018.2 in NE 10.5 mph 12.2 mph 76 % 0.0 in
06:09 -1.7 °F -6.0 °F 1018.2 in ENE 9.3 mph 14.0 mph 76 % 0.0 in
06:14 -1.7 °F -6.0 °F 1018.2 in NE 13.0 mph 14.0 mph 76 % 0.0 in
06:19 -1.7 °F -6.0 °F 1018.8 in ENE 10.1 mph 16.9 mph 76 % 0.0 in
06:24 -1.7 °F -6.0 °F 1018.8 in ENE 6.4 mph 16.9 mph 76 % 0.0 in
06:29 -1.6 °F -6.0 °F 1018.8 in NE 15.1 mph 15.8 mph 76 % 0.0 in
06:34 -1.6 °F -6.0 °F 1018.8 in East 13.7 mph 15.8 mph 75 % 0.0 in
06:39 -1.6 °F -6.0 °F 1018.8 in NNE 9.0 mph 15.1 mph 75 % 0.0 in
06:44 -1.7 °F -6.0 °F 1018.8 in ENE 10.1 mph 14.0 mph 75 % 0.0 in
06:49 -1.7 °F -6.0 °F 1018.8 in NE 9.0 mph 14.0 mph 75 % 0.0 in
06:54 -1.7 °F -6.0 °F 1018.8 in ESE 10.1 mph 13.7 mph 75 % 0.0 in
06:59 -1.8 °F -6.0 °F 1018.2 in ENE 5.0 mph 13.7 mph 75 % 0.0 in
07:04 -1.8 °F -6.0 °F 1018.2 in ENE 6.4 mph 13.7 mph 75 % 0.0 in
07:09 -1.8 °F -6.0 °F 1018.2 in ENE 8.7 mph 12.2 mph 75 % 0.0 in
07:14 -1.9 °F -6.0 °F 1018.2 in East 9.3 mph 12.2 mph 75 % 0.0 in
07:19 -1.9 °F -6.0 °F 1018.2 in ENE 2.6 mph 10.1 mph 75 % 0.0 in
07:24 -1.9 °F -6.0 °F 1018.2 in Calm   10.5 mph 75 % 0.0 in
Le Gheer Warneton
Courtoisie de Weather Underground - 1.25 mb

Mise a jour : 23/02/2018 07:26:12
Généré par Cumulus 1.9.4 (1099)